TimeCDT,TemperatureF,Dew PointF,Humidity,Sea Level PressureIn,VisibilityMPH,Wind Direction,Wind SpeedMPH,Gust SpeedMPH,PrecipitationIn,Events,Conditions,WindDirDegrees,DateUTC
12:15 AM,53.6,41.0,62,30.16,10.0,ENE,8.1,-,N/A,,Clear,60,2013-05-23 05:15:00
12:34 AM,53.6,41.0,62,30.16,10.0,ENE,8.1,-,N/A,,Clear,70,2013-05-23 05:34:00
12:54 AM,53.6,41.0,62,30.17,10.0,ENE,6.9,-,N/A,,Clear,60,2013-05-23 05:54:00
1:15 AM,51.8,39.2,62,30.18,10.0,ENE,6.9,-,N/A,,Clear,60,2013-05-23 06:15:00
1:34 AM,51.8,39.2,62,30.19,10.0,ENE,8.1,-,N/A,,Clear,60,2013-05-23 06:34:00
1:54 AM,50.0,39.2,66,30.19,10.0,ENE,9.2,-,N/A,,Clear,70,2013-05-23 06:54:00
2:15 AM,50.0,39.2,66,30.20,10.0,ENE,9.2,-,N/A,,Clear,70,2013-05-23 07:15:00
2:34 AM,50.0,39.2,66,30.21,10.0,ENE,9.2,-,N/A,,Clear,70,2013-05-23 07:34:00
2:55 AM,48.2,39.2,71,30.22,10.0,ENE,8.1,-,N/A,,Clear,70,2013-05-23 07:55:00
3:15 AM,48.2,39.2,71,30.23,10.0,ENE,6.9,-,N/A,,Clear,60,2013-05-23 08:15:00
3:34 AM,48.2,39.2,71,30.23,10.0,ENE,6.9,-,N/A,,Clear,70,2013-05-23 08:34:00
3:55 AM,46.4,39.2,76,30.24,10.0,ENE,6.9,-,N/A,,Clear,60,2013-05-23 08:55:00
4:15 AM,46.4,37.4,71,30.25,10.0,ENE,6.9,-,N/A,,Clear,60,2013-05-23 09:15:00
4:34 AM,46.4,37.4,71,30.26,10.0,ENE,6.9,-,N/A,,Clear,70,2013-05-23 09:34:00
4:55 AM,46.4,37.4,71,30.27,10.0,ENE,6.9,-,N/A,,Clear,70,2013-05-23 09:55:00
5:14 AM,44.6,37.4,76,30.28,10.0,East,6.9,-,N/A,,Clear,80,2013-05-23 10:14:00
5:34 AM,44.6,37.4,76,30.28,10.0,East,6.9,-,N/A,,Clear,80,2013-05-23 10:34:00
5:55 AM,44.6,37.4,76,30.29,10.0,ENE,8.1,-,N/A,,Clear,70,2013-05-23 10:55:00
6:14 AM,44.6,37.4,76,30.30,10.0,ENE,8.1,-,N/A,,Clear,70,2013-05-23 11:14:00
6:34 AM,44.6,35.6,71,30.30,10.0,East,10.4,-,N/A,,Clear,80,2013-05-23 11:34:00
6:55 AM,46.4,35.6,66,30.31,10.0,East,9.2,-,N/A,,Clear,80,2013-05-23 11:55:00
7:14 AM,46.4,35.6,66,30.31,10.0,East,11.5,-,N/A,,Clear,90,2013-05-23 12:14:00
7:34 AM,46.4,35.6,66,30.32,10.0,East,11.5,-,N/A,,Clear,80,2013-05-23 12:34:00
7:55 AM,48.2,35.6,62,30.33,10.0,East,10.4,-,N/A,,Clear,90,2013-05-23 12:55:00
8:14 AM,50.0,35.6,58,30.33,10.0,East,11.5,-,N/A,,Clear,90,2013-05-23 13:14:00
8:35 AM,50.0,33.8,54,30.33,10.0,East,11.5,19.6,N/A,,Clear,100,2013-05-23 13:35:00
8:55 AM,51.8,35.6,54,30.34,10.0,East,12.7,-,N/A,,Clear,90,2013-05-23 13:55:00
9:14 AM,51.8,35.6,54,30.34,10.0,East,12.7,17.3,N/A,,Clear,90,2013-05-23 14:14:00
9:35 AM,53.6,35.6,51,30.34,10.0,East,9.2,-,N/A,,Clear,90,2013-05-23 14:35:00
9:54 AM,55.4,33.8,44,30.34,10.0,East,8.1,-,N/A,,Clear,90,2013-05-23 14:54:00
10:14 AM,55.4,33.8,44,30.34,10.0,East,8.1,-,N/A,,Clear,100,2013-05-23 15:14:00
10:35 AM,57.2,32.0,38,30.34,10.0,East,9.2,-,N/A,,Clear,90,2013-05-23 15:35:00
10:54 AM,57.2,30.2,36,30.34,10.0,ENE,10.4,-,N/A,,Clear,70,2013-05-23 15:54:00
11:14 AM,57.2,32.0,38,30.34,10.0,ENE,10.4,16.1,N/A,,Clear,70,2013-05-23 16:14:00
11:35 AM,57.2,30.2,36,30.34,10.0,ENE,10.4,-,N/A,,Clear,70,2013-05-23 16:35:00
11:54 AM,59.0,30.2,34,30.34,10.0,ENE,10.4,-,N/A,,Clear,60,2013-05-23 16:54:00
12:14 PM,59.0,28.4,31,30.34,10.0,ENE,10.4,17.3,N/A,,Clear,70,2013-05-23 17:14:00
12:35 PM,60.8,30.2,31,30.34,10.0,East,10.4,18.4,N/A,,Clear,90,2013-05-23 17:35:00
12:54 PM,60.8,28.4,29,30.34,10.0,East,6.9,16.1,N/A,,Clear,90,2013-05-23 17:54:00
1:14 PM,60.8,28.4,29,30.34,10.0,East,12.7,19.6,N/A,,Clear,90,2013-05-23 18:14:00
1:35 PM,60.8,28.4,29,30.34,10.0,East,8.1,-,N/A,,Clear,100,2013-05-23 18:35:00
1:54 PM,60.8,26.6,27,30.33,10.0,ESE,12.7,-,N/A,,Clear,110,2013-05-23 18:54:00
2:15 PM,60.8,28.4,29,30.33,10.0,ENE,4.6,17.3,N/A,,Clear,60,2013-05-23 19:15:00
2:34 PM,62.6,28.4,27,30.32,10.0,East,8.1,-,N/A,,Clear,90,2013-05-23 19:34:00
2:54 PM,62.6,28.4,27,30.32,10.0,ESE,6.9,-,N/A,,Clear,110,2013-05-23 19:54:00
3:15 PM,64.4,30.2,28,30.32,10.0,East,10.4,-,N/A,,Clear,100,2013-05-23 20:15:00
3:34 PM,64.4,30.2,28,30.31,10.0,East,9.2,-,N/A,,Clear,80,2013-05-23 20:34:00
3:54 PM,64.4,28.4,26,30.31,10.0,East,10.4,-,N/A,,Clear,90,2013-05-23 20:54:00
4:15 PM,64.4,28.4,26,30.30,10.0,East,3.5,-,N/A,,Clear,100,2013-05-23 21:15:00
4:34 PM,64.4,28.4,26,30.30,10.0,ESE,8.1,-,N/A,,Clear,120,2013-05-23 21:34:00
4:54 PM,64.4,28.4,26,30.30,10.0,East,9.2,-,N/A,,Clear,90,2013-05-23 21:54:00
5:15 PM,64.4,28.4,26,30.29,10.0,ESE,8.1,-,N/A,,Clear,110,2013-05-23 22:15:00
5:34 PM,64.4,30.2,28,30.29,10.0,SE,6.9,-,N/A,,Clear,140,2013-05-23 22:34:00
5:54 PM,64.4,30.2,28,30.29,10.0,SSE,8.1,-,N/A,,Clear,150,2013-05-23 22:54:00
6:14 PM,66.2,28.4,24,30.28,10.0,SE,11.5,16.1,N/A,,Clear,140,2013-05-23 23:14:00
6:34 PM,64.4,28.4,26,30.28,10.0,SE,9.2,-,N/A,,Clear,140,2013-05-23 23:34:00
6:55 PM,64.4,26.6,24,30.28,10.0,SE,11.5,-,N/A,,Clear,130,2013-05-23 23:55:00
7:14 PM,64.4,24.8,22,30.28,10.0,ESE,10.4,-,N/A,,Clear,120,2013-05-24 00:14:00
7:34 PM,64.4,26.6,24,30.27,10.0,ESE,8.1,-,N/A,,Clear,120,2013-05-24 00:34:00
7:55 PM,62.6,26.6,26,30.27,10.0,ESE,8.1,-,N/A,,Clear,120,2013-05-24 00:55:00
8:14 PM,62.6,24.8,24,30.27,10.0,ESE,6.9,-,N/A,,Clear,110,2013-05-24 01:14:00
8:34 PM,60.8,24.8,25,30.27,10.0,East,5.8,-,N/A,,Clear,100,2013-05-24 01:34:00
8:55 PM,60.8,26.6,27,30.27,10.0,East,5.8,-,N/A,,Clear,100,2013-05-24 01:55:00
9:14 PM,57.2,26.6,31,30.27,10.0,East,5.8,-,N/A,,Clear,100,2013-05-24 02:14:00
9:34 PM,57.2,28.4,33,30.27,10.0,East,5.8,-,N/A,,Clear,100,2013-05-24 02:34:00
9:55 PM,55.4,28.4,36,30.28,10.0,East,5.8,-,N/A,,Clear,90,2013-05-24 02:55:00
10:14 PM,55.4,28.4,36,30.29,10.0,East,5.8,-,N/A,,Clear,100,2013-05-24 03:14:00
10:34 PM,55.4,28.4,36,30.29,10.0,East,6.9,-,N/A,,Clear,100,2013-05-24 03:34:00
10:55 PM,53.6,30.2,41,30.30,10.0,ESE,5.8,-,N/A,,Clear,110,2013-05-24 03:55:00
11:14 PM,53.6,30.2,41,30.29,10.0,ESE,8.1,-,N/A,,Clear,120,2013-05-24 04:14:00
11:34 PM,53.6,30.2,41,30.29,10.0,ESE,9.2,-,N/A,,Clear,110,2013-05-24 04:34:00
11:55 PM,53.6,32.0,44,30.29,10.0,ESE,9.2,-,N/A,,Clear,120,2013-05-24 04:55:00